Tracking 20232 objects as of 18-Jan-2020
HD Live streaming from Space Station
objects crossing your sky now

ORBCOMM FM 111

Track ORBCOMM FM 111 now!
10-day predictions
ORBCOMM FM 111 is classified as:


NORAD ID: 40089
Int'l Code: 2014-040D
Perigee: 620.3 km
Apogee: 670.4 km
Inclination: 47.0 °
Period: 97.5 minutes
Semi major axis: 7016 km
RCS: Unknown
Launch date: July 14, 2014
Source: United States (US)
Launch site: AIR FORCE EASTERN TEST RANGE (AFETR)
aabbcc
Your satellite tracking list
Your tracking list is empty




NASA's NSSDC Master Catalog

Two Line Element Set (TLE):
1 40089U 14040D   20018.13099464 -.00000114  00000-0  13071-4 0  9990
2 40089  47.0081 348.2283 0035699 183.4289 176.6364 14.77203927297463
Source of the keplerian elements: AFSPC